Powrót do katalogu

STARLINK-6108

AktywnyŁącznośćVLEO
NORAD 57155·PAYLOAD·🇺🇸 United States

Wystrzelony Jun 23, 2023 z Cape Canaveral Space Force Station

Loading…

Następne Przeloty (najbliższe 24 godziny)

TLE

ŚwieżeSource: CelesTrak SupGP

Epoka: Sep 14, 2026, 21:52 UTC

1 57155C 23090BG  26257.91159722  .00017107  00000+0  61975-3 0  2578
2 57155  43.0001 275.1395 0001162 268.2996 225.9843 15.27563099    18

Śledź STARLINK-6108 w czasie rzeczywistym z AllMySat

Download on the App Store